Погода в Вязьме

Погода в Вязьме : погода сейчас, прогноз погоды и архив. Всё, что Вы хотите узнать о погоде в Вязьме!

Поиск расширенной информации на нашем сайте:

Другие новости

Новости СМИ2

Главная страница сайта

Новости сайта

02.10.2013

Напоминаем, что на нашем новом сайте вы можете получить высокодетализированные прогнозы погоды по пунктам России, СНГ и мира (включающие важные для авиации метеовеличины, такие как направление и скорость ветра, видимость, явления погоды, количество и форма облачности, нижняя и верхняя граница облачности), а также ознакомиться с разнообразными материалами по авиационной метеорологии и подборкой полезных ссылок на эту тему.

Сайт Метеоцентр.Азия посвящён разработке технологий оптимизации авиаметеорологического обслуживания, включая проектирование и перспективное создание нескольких автоматизированных авиаметеорологических систем:
- система выпуска высокодетальных прогностических карт явлений погоды для нижнего воздушного пространства по России и ближнему зарубежью;
- система верификации прогнозов TAF (выпускаемых синоптиками официальных АМСГ РФ и ближнего зарубежья) и AUTOTAF (выпускаемых сайтом Метеоцентр.Азия) - выявление ошибок, онлайн-сопоставление с фактической погодой METAR, автоматическое внесение коррективов в прогнозы при резком отклонении фактической погоды от прогноза, подсчёт оправдываемости прогнозов по элементам и в целом;
- система обработки, анализа и отображения авиаметеорологической информации для применения провайдерами метеорологической информации.


Погода в Вязьме - сегодня

Время (UTC), дата Ветер
(°,м/с) 
Видим.   Явления Облачность Т
(°С)
Тd
(°С)
f(%) Тe
(°С)
Pmin
(гПа)
dP
(гПа)
Po
(мм)
O2
(г/м3)
Тmin Tmax R s Состояние
почвы
06 23.05.17 280 (З) 10 км    10/0 верхняя 
[Cc]
+14.4 +8.1 66 +15  1012  0.4  737  281  +5.1        влажная 
09 23.05.17 280 (З) 10 км    8/4 1000 м верхняя 
[Cu hum|Ci fib]
+18.9 +4.8 39 +19  1011.3  -0.3  737  277           
12 23.05.17 270 (З) 4{10}  10 км    8/4 1500 м верхняя 
[Cu hum|Ci fib]
+20.3 +4.1 34 +20  1010.9  -0.2  737  276           
15 23.05.17 270 (З) 10 км    6/3 1500 м верхняя 
[Cu hum|Ci fib]
+20.2 +2.6 31 +20  1010.6  -0.4  737  276           
18 23.05.17 310 (СЗ) 10 км    4/0 верхняя 
[Ci fib]
+14.9 +4.3 49 +16  1011.6  0.5  737  281    +20.9       
21 23.05.17 тихо ()   10 км    ясно 
+7.4 +6 91 +7  1013.1  0.7  737  288           
00 24.05.17 тихо ()   4000 м  дымка  ясно 
+5.2 +4.8 97 +5  1013.1  -0.2  737  291           
03 24.05.17 тихо ()   4000 м  дымка  3/0 верхняя 
[Cc]
+8.9 +8.1 95 +9  1012.7  737  286  +4.1         
06 24.05.17 140 (ЮВ) 10 км    4/0 средняя, верхняя 
[Ac trans|Ci fib]
+18.1 +5 42 +20  1011.7  -0.1  737  278  +4.1        влажная 
09 24.05.17 190 (Ю) 10 км    4/0 средняя, верхняя 
[Ac cast|Ci fib]
+21.1 +4.5 34 +21  1010.8  -0.7  737  275           
12 24.05.17 220 (ЮЗ) 10 км    6/3 1000 м верхняя 
[Cu hum|Ci fib]
+22.9 +3.6 28 +23  1010.1  -0.5  736  273           
15 24.05.17 270 (З) 10 км    8/1 1000 м средняя, верхняя 
[Cu hum|Ac trans|Cc]
+19.6 +5.6 40 +20  1010.6  -0.1  737  276           
18 24.05.17 210 (ЮЗ) 10 км    6/3 1000 м средняя, верхняя 
[Sc diur, vesp|Ac trans|Cc]
+16 +5.8 51 +17  1011.8  0.9  737  280    +22.9       
21 24.05.17 240 (ЮЗ) 10 км    3/0 верхняя 
[Ci fib]
+11.3 +7.3 76 +12  1012.8  0.4  737  284           
00 25.05.17 190 (Ю) 10 км    10/0 верхняя 
[Ci sp]
+10.9 +8.4 85 +12  1013  0.2  738  284           
03 25.05.17 190 (Ю) 10 км    10/0 средняя 
[As trans]
+11.8 +9.9 88 +13  1012.2  -0.6  737  283  +9.5         
06 25.05.17 190 (Ю) 4000 м  слаб. дождь  10/8 300 м средняя 
[Frnb|As op]
+12.7 +11.8 94 +17  1011.7  -0.4  737  281  +9.5      мокрая 
09 25.05.17 220 (ЮЗ) 4000 м  слаб. дождь  10/8 300 м средняя 
[Sc|As op]
+14.7 +12.3 86 +20  1011.8  0.3  737  279           
12 25.05.17 210 (ЮЗ) 10 км  в посл. час ливневой дождь  8/4 600 м кучево-дожд., верхняя 
[Cb cap|Ci fib]
+16.7 +13.5 81 +24  1011.3  -0.2  737  277           
15 25.05.17 210 (ЮЗ) 10 км  {ливн. осадки}  9/3 1000 м верхняя 
[Cu med, cong|Ci fib]
+17.5 +12.4 72 +23  1010.9  -0.3  737  277         
18 25.05.17 210 (ЮЗ) 10 км  {ливн. осадки}  8/3 600 м средняя, верхняя 
[Sc|Ac trans|Ci fib]
+13.5 +10.4 82 +16  1011.9  0.6  737  281    +17.9     
21 25.05.17 250 (З) 4000 м  дымка  6/0 средняя 
[Ac trans]
+11.3 +9.9 91 +13  1012.3  0.2  737  283           
00 26.05.17 тихо ()   4000 м  дымка  6/0 средняя, верхняя 
[Ac trans|Ci fib]
+7.7 +7.3 97 +8  1012.3  -0.4  737  287           
03 26.05.17 130 (ЮВ) 0500 м  туман  ?/?  
+7.8 +7.5 98 +9  1012.3  737  287  +6         
06 26.05.17 160 (Ю) 4000 м  дымка{туман}  8/0 средняя, верхняя 
[Ac trans|Ci fib]
+12.8 +11.1 89 +16  1011.5  -0.3  737  281  +6        влажная 
Время (UTC), дата Ветер
(°,м/с) 
Видим.   Явления Облачность Т
(°С)
Тd
(°С)
f(%) Тe
(°С)
Pmin
(гПа)
dP
(гПа)
Po
(мм)
O2
(г/м3)
Тmin Tmax R s Состояние
почвы

Для получения пояснительной информации подведите курсор к названию столбца.

ПОГОДА в Вязьме - архив

Всё, что Вы хотите узнать о погоде в Вязьме - удобно и подробно!

Выберите нужную дату (начиная с 1 января 2015* года) и нажмите кнопку "Найти".
Будут отображены архивные сводки погоды по пункту Вязьма, начиная с указанной даты.


Отображать данные в формате CSV (для использования в таблицах Excel)


Внимание! Наш архив погоды предназначен исключительно для личного некоммерческого использования в познавательных целях. Если Вам необходимы официальные справки о состоянии погоды (для производственных, юридических, коммерческих и т.п. целей), обращайтесь в органы Росгидромета.

*Примечание: данная дата относится к архиву по метеостанциям СССР (Россия, СНГ, Балтия).
Архив по метеостанциям Зарубежной Европы и Азии (кроме Китая) хранится 10 дней, по другим регионам земного шара (Китай, Африка, Америка, Австралия, Океания) - 1 день.

Вязьма - район местоположения метеостанции


Название, широта, долгота, высота метеостанции:
Вязьма 55.2°ш. 34.4°д. 251 м над ур. моря [Российская Федерация]

Дополнительная информация

В oтличие oт бoльшинства пoгoдных сайтoв мы публикуем пoдрoбную метеoинфoрмацию в детальнoм прoфессиoнальнoм фoрмате.

Характеристики температуры и влажнoсти вoздуха измеряются на высoте 2 м в тени вдали oт зданий и деревьев.
Скoрoсть ветра измеряется на высoте 10 м (на урoвне рoста челoвека скoрoсть ветра ниже в 1.5-2 раза). Если метеoстанция нахoдится в гoрoде или в лесу, тo скoрoсть ветра занижена на 2-4 м/с пo сравнению с oткрытым местoм. Скoрoсть ветра над акватoриями крупных рек и oзёр, а также на вершинах хoлмoв на 2-5 м/с выше, чем в oбычных услoвиях.
Атмoсфернoе давление в разных тoчках местнoсти мoжет значительнo oтличаться oт давления на метеoстанции, в зависимoсти oт услoвий рельефа (при пoдъёме на 10 м давление пoнижается примернo на 1 мм рт.ст.).